TimeCDT,TemperatureF,Dew PointF,Humidity,Sea Level PressureIn,VisibilityMPH,Wind Direction,Wind SpeedMPH,Gust SpeedMPH,PrecipitationIn,Events,Conditions,WindDirDegrees,DateUTC
12:53 AM,41.0,30.0,65,29.91,10.0,West,16.1,-,N/A,,Clear,270,2011-10-17 05:53:00
1:53 AM,39.9,30.0,68,29.90,10.0,West,15.0,-,N/A,,Clear,270,2011-10-17 06:53:00
2:53 AM,39.9,30.0,68,29.90,10.0,West,16.1,-,N/A,,Clear,280,2011-10-17 07:53:00
3:53 AM,37.9,30.0,73,29.89,10.0,West,12.7,-,N/A,,Clear,270,2011-10-17 08:53:00
4:53 AM,37.0,28.9,73,29.88,10.0,West,12.7,-,N/A,,Clear,260,2011-10-17 09:53:00
5:53 AM,37.9,28.9,70,29.90,10.0,West,15.0,-,N/A,,Clear,280,2011-10-17 10:53:00
6:53 AM,36.0,28.0,73,29.90,10.0,West,11.5,-,N/A,,Clear,280,2011-10-17 11:53:00
7:53 AM,36.0,28.0,73,29.91,10.0,West,11.5,-,N/A,,Clear,280,2011-10-17 12:53:00
8:53 AM,39.0,28.9,67,29.92,10.0,West,13.8,-,N/A,,Clear,280,2011-10-17 13:53:00
9:53 AM,45.0,30.0,56,29.92,10.0,WNW,18.4,-,N/A,,Clear,290,2011-10-17 14:53:00
10:53 AM,48.9,30.0,48,29.93,10.0,WNW,19.6,-,N/A,,Clear,300,2011-10-17 15:53:00
11:53 AM,52.0,28.9,41,29.93,10.0,WNW,20.7,28.8,N/A,,Clear,300,2011-10-17 16:53:00
12:53 PM,55.0,28.0,35,29.92,10.0,NW,24.2,32.2,N/A,,Clear,320,2011-10-17 17:53:00
1:53 PM,57.0,27.0,32,29.90,10.0,NW,23.0,32.2,N/A,,Clear,320,2011-10-17 18:53:00
2:53 PM,57.0,26.1,30,29.89,10.0,NW,26.5,35.7,N/A,,Clear,310,2011-10-17 19:53:00
3:53 PM,57.0,23.0,27,29.89,10.0,NW,21.9,-,N/A,,Clear,320,2011-10-17 20:53:00
4:53 PM,55.9,25.0,30,29.91,10.0,WNW,19.6,31.1,N/A,,Clear,300,2011-10-17 21:53:00
5:53 PM,54.0,26.1,34,29.92,10.0,NW,17.3,25.3,N/A,,Clear,320,2011-10-17 22:53:00
6:53 PM,48.9,21.9,35,29.94,10.0,NW,10.4,-,N/A,,Clear,310,2011-10-17 23:53:00
7:53 PM,45.0,28.0,52,29.96,10.0,North,10.4,-,N/A,,Clear,10,2011-10-18 00:53:00
8:53 PM,42.1,28.9,60,29.99,10.0,North,9.2,-,N/A,,Clear,10,2011-10-18 01:53:00
9:53 PM,37.9,28.0,68,30.01,10.0,North,8.1,-,N/A,,Clear,360,2011-10-18 02:53:00
10:53 PM,36.0,28.0,73,30.02,10.0,NW,6.9,-,N/A,,Clear,320,2011-10-18 03:53:00
11:53 PM,39.9,28.9,65,30.02,10.0,NNW,10.4,-,N/A,,Overcast,330,2011-10-18 04:53:00